Theta_e
334 335 337 338 341 342 343 343 343 342 341 340 348 349 349 348 346 342 332 323 317 310 309 309 312 312 312 312 312 313 314 314 314 316 317 317 318 319 319 319 320 320 320
332 334 336 339 341 342 340 340 340 341 342 344 348 353 348 345 344 335 323 316 310 308 310 311 311 312 311 313 314 314 314 314 316 317 318 318 318 319 318 316 317 317 317
333 335 337 339 340 338 339 338 338 340 347 351 355 349 346 344 340 324 316 310 308 310 310 310 311 311 314 317 316 315 315 317 316 316 316 315 315 316 317 316 314 313 312
334 335 337 338 339 339 343 343 339 348 353 355 351 348 344 344 327 317 310 307 309 309 308 312 311 313 317 317 317 317 316 315 314 313 311 310 308 306 305 305 304 305 316
335 335 335 339 342 344 346 345 347 354 353 356 350 346 345 332 320 312 309 308 308 308 311 311 312 315 313 313 313 313 313 312 310 307 305 303 303 304 304 305 307 313 316
340 339 339 339 343 345 346 348 354 355 356 353 347 345 341 323 315 311 308 306 307 310 311 311 313 314 312 310 308 307 305 304 302 302 303 304 303 304 304 305 310 313 313
341 342 342 342 343 346 347 351 355 354 355 349 347 344 326 318 313 311 307 307 310 312 308 311 313 312 312 310 304 302 302 302 301 301 302 303 303 306 308 311 312 311 312
341 342 343 343 344 345 347 353 356 356 352 348 346 333 322 315 313 310 306 310 312 311 310 310 313 312 309 302 301 301 301 301 301 301 301 304 308 309 310 310 310 312 312
340 341 343 344 345 346 347 352 356 356 349 347 338 324 317 315 314 310 309 312 313 312 307 311 312 307 302 300 300 301 301 301 300 301 304 307 309 309 310 310 311 312 312
341 342 343 344 345 346 348 354 356 354 348 341 326 321 318 315 314 309 309 312 312 306 306 308 304 301 300 300 300 301 301 301 301 301 305 307 308 309 310 310 312 311 312
342 343 344 346 347 348 350 356 357 351 345 330 324 319 318 315 314 310 308 311 307 304 304 302 301 301 301 301 301 301 301 301 299 302 305 306 307 308 309 311 311 310 312
343 345 346 347 349 350 354 357 354 350 340 325 321 319 316 315 314 310 307 308 303 304 303 301 301 301 302 302 301 301 301 300 299 303 305 306 307 307 308 309 309 309 310
345 347 349 350 352 354 357 356 352 345 330 323 318 317 315 314 313 310 306 305 303 303 303 302 302 302 302 302 301 301 301 299 300 304 305 305 306 307 307 308 308 307 307
347 350 352 353 355 357 355 353 351 340 325 320 317 316 314 313 313 309 306 304 303 303 303 302 302 303 303 302 301 300 299 300 301 304 305 305 305 306 306 307 307 306 306
351 353 355 356 357 356 350 347 337 326 321 316 315 316 314 312 312 308 304 303 303 303 303 302 303 303 303 302 300 299 299 301 302 304 305 304 304 304 305 305 306 305 307
353 355 357 357 356 351 348 339 327 322 318 316 319 317 313 310 308 305 303 303 303 303 303 302 303 303 303 301 299 299 299 301 302 303 304 303 303 303 304 305 305 305 305
354 355 356 356 353 348 343 332 324 319 318 318 315 312 308 305 303 303 303 304 304 303 302 302 302 303 302 300 299 299 299 301 302 302 302 301 301 301 303 304 305 305 305
355 355 355 354 351 347 338 327 321 316 315 313 309 304 304 303 303 303 304 304 303 302 302 302 302 302 302 299 299 299 300 301 302 301 300 300 300 300 302 303 303 304 304
355 352 351 350 348 341 330 322 315 315 311 307 306 308 305 303 303 303 303 302 302 302 302 302 302 302 300 298 298 299 300 301 301 299 299 300 300 300 301 302 302 303 304
353 349 347 347 343 333 325 316 317 311 308 309 310 308 308 308 306 304 304 303 302 302 302 302 302 302 299 298 298 299 300 300 300 299 299 299 300 300 301 301 302 303 303
349 345 345 345 338 329 322 317 316 309 311 311 311 311 311 309 306 305 304 303 302 301 301 302 302 301 298 298 298 299 299 299 299 299 299 299 300 300 301 301 302 301 300
346 343 342 340 335 326 319 317 314 310 312 312 312 312 311 310 307 305 304 302 302 302 301 302 302 301 298 297 297 297 297 297 298 298 299 300 300 300 301 301 300 299 299
344 340 340 337 330 323 317 315 313 312 312 313 312 312 311 311 308 305 303 302 302 301 301 301 301 301 298 297 296 296 296 295 297 298 299 299 300 301 301 299 298 299 299
341 339 339 335 326 319 316 316 312 313 313 313 313 313 312 311 309 304 303 302 302 301 301 301 301 301 297 297 297 297 296 296 297 299 299 300 301 300 298 297 298 298 299
339 339 337 330 321 319 317 317 313 313 313 313 313 313 312 311 309 305 303 302 302 301 301 301 301 301 298 297 297 296 296 295 297 299 299 300 298 297 297 297 297 298 298
338 336 333 324 321 320 319 318 314 313 313 314 314 313 312 311 309 306 303 302 302 301 301 301 301 300 298 297 297 297 295 296 298 299 300 298 296 296 296 296 297 298 298
Wind_Speed
30 29 27 25 22 20 19 17 17 16 14 11 11 14 14 15 17 17 18 19 18 16 13 13 14 16 18 19 19 18 17 19 23 27 24 18 19 21 20 18 19 15 15
31 30 28 25 21 19 18 17 17 17 15 13 12 11 14 16 17 17 19 17 14 12 12 13 15 17 17 18 18 17 17 16 18 22 20 19 18 20 17 16 16 15 16
34 32 30 25 22 20 18 18 19 18 14 12 10 13 14 17 15 17 17 14 11 11 12 13 15 16 16 17 16 16 15 15 17 19 21 22 21 20 21 21 21 22 17
35 33 30 25 21 20 17 18 19 16 13 12 12 12 15 15 14 15 14 11 10 11 11 12 14 14 14 14 16 16 16 17 17 19 22 24 25 24 24 26 25 19 17
35 33 29 25 23 21 20 19 19 15 14 16 12 13 15 13 13 13 11 10 10 10 9 11 12 12 12 14 16 16 17 18 21 22 25 26 25 26 27 27 26 24 22
35 32 27 27 25 24 22 21 19 16 18 15 13 15 13 12 11 12 10 9 8 7 9 10 9 9 11 14 15 16 19 22 22 24 24 26 27 27 27 25 26 29 31
38 33 27 26 28 27 25 22 20 18 19 16 15 14 11 10 9 10 9 8 6 7 8 10 9 10 12 15 14 15 16 16 19 21 23 23 27 25 26 25 23 26 29
39 36 31 28 29 31 29 25 21 21 21 17 15 12 10 8 6 8 9 6 5 6 9 9 10 12 15 16 16 16 15 16 18 18 20 19 20 22 23 25 26 27 27
40 38 35 33 33 34 32 27 23 24 20 18 14 12 9 6 5 7 6 5 5 7 8 8 11 13 15 17 17 17 17 15 15 14 13 14 15 16 19 21 22 27 32
40 38 35 35 34 35 32 27 23 24 20 18 15 12 8 6 5 6 6 6 6 7 7 8 11 13 15 17 18 19 20 20 22 18 11 10 11 14 17 21 21 25 27
33 32 31 31 32 32 30 27 24 23 21 18 14 11 8 6 5 5 7 7 6 5 6 8 10 11 14 16 19 19 21 22 21 17 14 13 12 14 15 16 20 25 24
26 26 27 28 31 31 30 27 28 24 21 18 15 12 9 7 4 5 7 6 5 5 7 9 10 13 15 17 18 18 19 20 19 14 14 15 17 19 19 20 21 23 21
22 22 24 27 29 31 30 29 27 25 22 18 16 12 10 7 5 4 6 5 5 5 7 8 11 13 14 15 17 18 18 19 18 16 18 19 19 20 21 22 22 23 21
20 21 23 26 29 32 31 28 26 25 22 18 16 13 10 8 6 5 5 4 4 6 7 9 10 13 15 16 17 17 18 18 19 18 18 19 20 20 21 24 27 29 32
21 22 26 29 31 32 29 25 23 19 14 11 11 9 8 7 7 6 4 4 3 5 7 8 10 11 14 17 16 16 16 16 17 17 19 21 22 22 23 25 27 30 30
24 26 28 29 31 29 27 27 24 19 16 15 13 10 9 9 7 5 3 2 2 4 7 8 10 13 17 18 19 17 16 16 18 19 20 23 24 24 25 26 27 29 31
22 27 28 31 31 29 29 29 26 23 20 16 13 11 9 8 5 4 4 3 3 5 7 8 10 13 16 18 17 16 16 17 18 19 21 23 24 23 25 27 29 30 33
22 20 24 28 28 29 29 26 21 18 17 15 12 9 6 5 4 5 4 3 4 5 6 7 9 12 15 16 16 15 15 16 18 20 21 21 24 25 26 27 28 30 32
24 23 25 23 26 28 26 23 19 17 15 13 11 8 7 7 6 5 3 1 3 5 5 6 9 12 14 15 14 13 14 15 17 20 21 21 23 26 26 27 29 27 30
25 22 22 24 28 29 26 24 22 18 16 13 11 9 9 7 5 5 3 1 2 3 4 6 10 13 13 13 13 13 14 15 16 19 21 21 23 26 27 28 27 28 31
23 22 23 26 29 29 27 25 21 19 17 14 11 10 7 4 4 5 4 1 2 3 4 6 10 12 12 12 13 13 13 14 15 18 20 21 24 26 26 27 27 29 31
22 22 23 27 29 29 27 24 22 20 19 16 14 12 9 6 5 6 6 2 1 1 3 5 9 11 11 11 12 13 15 15 16 18 20 21 24 25 25 27 29 29 27
23 20 24 28 29 28 26 25 24 22 21 18 14 12 9 7 6 7 7 4 2 0 1 4 8 11 10 12 14 15 16 16 15 18 21 22 23 23 26 27 25 23 25
23 20 24 29 31 29 28 27 25 22 21 19 16 13 11 9 6 7 8 5 2 1 0 3 7 10 9 10 12 14 14 14 15 17 20 19 21 24 24 23 24 24 21
23 23 26 30 31 30 30 25 24 23 22 20 19 15 13 12 10 10 9 7 3 0 1 2 6 8 7 8 10 12 13 12 13 15 16 17 20 20 23 25 25 25 23
23 25 28 30 32 31 29 27 26 23 23 19 19 17 15 14 12 11 10 8 4 2 2 2 4 6 5 7 9 12 12 10 11 14 14 16 18 23 25 28 27 25 25
Wind_Direction
227 232 237 241 245 251 255 258 259 261 267 265 276 293 300 309 313 313 319 322 324 328 332 334 336 336 336 333 333 333 330 328 326 331 342 342 343 350 359 2 351 340 332
229 231 235 239 242 243 246 247 247 250 256 267 275 286 297 305 309 318 322 322 325 332 335 337 335 337 338 339 339 340 338 337 337 343 355 354 0 356 354 355 353 347 335
232 233 235 236 237 237 239 241 239 242 252 254 260 281 295 300 307 320 320 321 329 330 333 334 338 342 351 357 3 2 1 355 348 344 344 350 352 349 341 340 347 344 356
235 235 235 233 233 233 234 237 235 234 239 242 256 273 287 296 311 319 318 323 324 326 331 335 339 350 360 12 13 7 359 351 346 341 339 340 340 343 344 346 347 352 352
237 237 236 232 229 229 229 234 230 226 243 235 251 276 285 295 311 316 321 320 320 325 333 340 348 354 358 5 2 356 350 346 340 339 340 341 347 348 349 350 346 346 353
239 239 237 233 227 228 226 228 226 231 234 229 255 270 276 294 310 320 325 317 324 337 340 348 352 347 352 357 349 345 341 338 341 340 344 341 345 344 344 348 346 346 345
243 242 237 231 224 224 223 224 226 229 227 234 250 258 269 293 311 327 323 322 329 337 344 344 342 343 348 343 346 347 341 338 336 336 339 341 342 348 344 347 346 338 336
240 238 230 223 219 221 219 219 222 224 225 231 239 248 267 285 307 326 325 333 335 342 334 336 342 344 341 344 348 349 347 344 343 340 339 345 346 346 343 341 338 336 336
236 236 229 222 217 217 215 215 215 222 220 228 230 243 256 277 300 328 347 346 343 334 335 341 342 341 337 343 344 342 346 346 356 350 345 343 342 338 337 337 337 342 342
239 237 228 222 218 215 214 212 214 218 217 214 223 233 244 267 294 344 348 343 342 342 345 345 341 339 343 343 344 343 344 350 352 356 355 347 336 335 334 336 341 349 346
238 235 226 221 217 213 209 208 213 210 210 213 221 227 240 260 293 338 343 345 346 356 351 349 342 345 348 347 349 345 347 349 349 349 349 348 350 351 348 345 342 345 349
232 227 220 214 210 206 205 204 206 207 210 213 219 224 237 248 274 326 345 337 350 357 357 352 352 353 352 353 351 348 347 347 346 348 350 354 356 354 351 348 344 345 345
218 213 210 208 204 200 200 205 202 207 210 215 218 221 227 236 258 309 326 330 353 357 350 353 353 356 354 351 349 348 346 347 351 353 358 358 355 351 345 344 345 347 351
207 202 200 197 193 197 202 205 210 209 208 214 215 217 222 234 253 291 310 312 336 343 340 346 350 355 356 353 349 352 354 357 357 356 358 356 352 352 351 350 351 354 352
195 193 190 190 194 200 202 204 210 212 220 222 213 217 231 243 252 274 292 304 334 331 327 338 345 346 351 357 2 359 360 2 6 2 358 358 358 356 357 355 355 358 0
189 191 193 194 197 201 206 202 199 204 205 198 207 218 229 242 252 267 260 278 315 321 326 337 345 350 356 356 358 3 2 4 6 3 358 354 356 357 357 359 359 1 1
199 194 194 196 200 206 204 205 202 198 196 201 203 217 230 239 241 229 223 245 277 318 332 344 344 350 353 357 358 360 2 6 4 1 359 359 358 0 359 0 359 359 360
196 198 201 200 206 204 204 203 205 209 202 201 204 205 212 212 207 213 205 221 283 312 336 346 347 350 352 356 360 3 6 7 7 3 2 4 4 3 2 2 0 357 357
190 193 200 207 206 203 199 197 191 193 197 198 189 181 164 170 189 202 203 253 310 325 354 354 359 355 354 358 2 5 8 5 7 5 5 6 4 3 4 3 359 358 357
190 199 204 206 201 196 195 192 190 193 192 187 176 166 160 165 182 195 189 238 334 352 5 8 5 1 359 359 1 5 6 3 7 7 8 8 7 7 7 4 3 0 358
196 198 208 205 201 197 196 195 195 194 189 180 171 159 152 147 183 202 197 251 356 9 21 14 5 3 3 1 3 5 6 2 2 6 9 9 8 7 7 7 4 357 355
200 202 207 204 201 198 197 198 196 191 184 180 176 176 177 182 211 213 206 229 341 10 25 12 8 6 8 7 7 7 3 1 360 8 12 11 9 6 4 1 358 359 5
203 204 209 203 201 200 198 197 196 191 186 183 184 190 190 189 210 206 201 204 195 269 60 15 9 8 6 8 8 8 8 6 13 14 11 11 7 3 359 359 6 12 13
203 211 214 203 199 199 199 197 195 193 191 190 194 198 200 203 216 209 202 198 191 264 177 10 7 8 7 10 10 8 11 16 21 19 12 13 7 2 7 22 22 16 15
213 215 211 203 199 199 198 198 196 194 193 197 202 203 206 208 217 212 206 202 200 250 235 348 360 4 3 14 15 13 14 19 29 25 21 14 12 24 29 27 23 24 26
221 214 204 201 200 201 201 202 200 198 196 200 203 208 213 211 217 215 209 203 200 209 209 256 342 355 359 18 16 18 21 32 36 31 27 23 35 40 40 37 33 30 24